Location: Bridalveil Moraine
(37.7171°N, 119.6568°W)
Time: 02:51:12
(UTC+00:00)

BlueWalker 3 - Pass Details

Date: 12 August 2024
Orbit: 476 x 487 km, 53.2° (Epoch: 11 September)

Event Time Altitude Azimuth Distance (km) Brightness Sun altitude
Exits shadow 10:40:34 11° 329° (NNW) 1,593 4.6 -25.9°
Maximum altitude 10:41:17 12° 341° (NNW) 1,566 4.7 -25.8°
Drops below altitude 10° 10:42:44 10° 4° (N) 1,676 5.2 -25.6°
Sets 10:46:15 0° 37° (NE) 2,572 6.9 -25.1°
